GW2996 Weather Reports


time (UTC)temp
C
wind
direction
speed
KPH
gust
KPH
rain 1hr
cm
rain 24hr
cm
rain mn
cm
humidity
%
barometer
mb
20260504110224 6 50 3.2 4.8 0.00 0.00 0.00 86 1006.7
20260504100148 5 67 4.8 4.8 0.00 0.00 0.00 81 1007.0
20260504090111 6 22 1.6 4.8 0.00 0.00 0.00 69 1007.1
20260504081541 5 358 3.2 3.2 0.00 0.00 0.00 65 1007.6
20260504081037 5 10 0.0 3.2 0.00 0.00 0.00 66 1007.7
20260504080534 5 14 3.2 4.8 0.00 0.00 0.00 66 1007.6
20260504050346 -1 38 0.0 4.8 0.00 0.00 0.00 82 1008.3
20260504045844 -1 344 0.0 4.8 0.00 0.00 0.00 82 1008.1
20260504045343 -1 17 3.2 3.2 0.00 0.00 0.00 82 1008.2
20260504044841 -1 7 3.2 3.2 0.00 0.00 0.00 82 1008.5
20260504044338 -1 50 0.0 4.8 0.00 0.00 0.00 82 1008.5
20260504043835 -1 15 3.2 3.2 0.00 0.00 0.00 82 1008.5
20260504043332 0 1 3.2 3.2 0.00 0.00 0.00 81 1008.4
20260504042829 0 23 3.2 4.8 0.00 0.00 0.00 81 1008.5
20260504042325 0 7 3.2 3.2 0.00 0.00 0.00 81 1008.7
20260504041822 -1 9 3.2 4.8 0.00 0.00 0.00 81 1008.5
20260504041318 0 322 0.0 4.8 0.00 0.00 0.00 80 1008.5
20260504040814 0 356 3.2 4.8 0.00 0.00 0.00 79 1008.5
20260504040312 0 29 1.6 3.2 0.00 0.00 0.00 81 1008.4
20260504035808 0 5 3.2 3.2 0.00 0.00 0.00 81 1008.5
20260504035305 0 29 0.0 3.2 0.00 0.00 0.00 80 1008.4
20260504034802 0 15 3.2 3.2 0.00 0.00 0.00 79 1008.7
20260504034300 0 3 4.8 4.8 0.00 0.00 0.00 79 1008.6
20260504033757 0 18 4.8 4.8 0.00 0.00 0.00 78 1008.8
20260504033255 0 10 0.0 4.8 0.00 0.00 0.00 77 1008.6
20260504032751 0 23 3.2 3.2 0.00 0.00 0.00 80 1008.7
20260504032248 0 54 1.6 1.6 0.00 0.00 0.00 78 1008.5
20260504031745 0 35 3.2 3.2 0.00 0.00 0.00 79 1008.6
20260504031243 0 52 0.0 1.6 0.00 0.00 0.00 78 1008.6
20260504030738 0 16 0.0 4.8 0.00 0.00 0.00 77 1008.7
20260504030236 0 8 3.2 3.2 0.00 0.00 0.00 76 1008.6
20260504025732 0 28 4.8 4.8 0.00 0.00 0.00 76 1008.8
20260504025229 0 19 4.8 4.8 0.00 0.00 0.00 76 1008.7
20260504024726 1 342 3.2 4.8 0.00 0.00 0.00 74 1008.8
20260504024222 1 334 4.8 4.8 0.00 0.00 0.00 72 1008.8
20260504023719 1 359 3.2 3.2 0.00 0.00 0.00 75 1009.0
20260504023215 1 325 3.2 3.2 0.00 0.00 0.00 74 1008.7
20260504022712 1 40 3.2 4.8 0.00 0.00 0.00 73 1008.8
20260504022208 2 14 1.6 3.2 0.00 0.00 0.00 71 1008.9
20260504021706 2 353 3.2 3.2 0.00 0.00 0.00 71 1008.8
20260504021202 2 20 3.2 4.8 0.00 0.00 0.00 69 1008.9
20260504020659 2 358 3.2 3.2 0.00 0.00 0.00 71 1008.8
20260504020155 1 0 3.2 3.2 0.00 0.00 0.00 74 1008.9
20260504015652 1 359 3.2 4.8 0.00 0.00 0.00 73 1008.6
20260504015148 2 17 3.2 6.4 0.00 0.00 0.00 72 1008.7
20260504014644 2 11 3.2 4.8 0.00 0.00 0.00 70 1008.7
20260504014141 2 357 4.8 4.8 0.00 0.00 0.00 72 1008.7
20260504013639 2 10 3.2 4.8 0.00 0.00 0.00 71 1008.8
20260504013136 2 3 4.8 4.8 0.00 0.00 0.00 72 1008.9
20260504012633 2 345 3.2 4.8 0.00 0.00 0.00 73 1008.8
20260504012131 2 352 4.8 4.8 0.00 0.00 0.00 72 1008.7
20260504011627 2 346 4.8 6.4 0.00 0.00 0.00 70 1008.7
20260504011124 3 12 4.8 4.8 0.00 0.00 0.00 69 1008.6
20260504010620 3 16 3.2 4.8 0.00 0.00 0.00 67 1008.6
20260504010116 4 343 3.2 4.8 0.00 0.00 0.00 65 1008.7
20260504005613 5 19 3.2 4.8 0.00 0.00 0.00 60 1008.5
20260504005110 5 21 1.6 3.2 0.00 0.00 0.00 61 1008.4
20260504004608 5 32 0.0 1.6 0.00 0.00 0.00 61 1008.5
20260504004105 5 5 1.6 3.2 0.00 0.00 0.00 60 1008.5
20260504003600 5 6 0.0 1.6 0.00 0.00 0.00 58 1008.5
20260504003057 6 32 0.0 1.6 0.00 0.00 0.00 57 1008.3
20260504002554 6 13 0.0 1.6 0.00 0.00 0.00 56 1008.3
20260504002052 6 5 1.6 3.2 0.00 0.00 0.00 55 1008.3
20260504001550 7 113 0.0 0.0 0.00 0.00 0.00 56 1008.2
20260504001045 7 113 0.0 0.0 0.00 0.00 0.00 54 1008.3
20260504000543 7 32 0.0 0.0 0.00 0.00 0.00 53 1008.4
20260504000040 8 345 0.0 1.6 0.00 0.00 0.00 53 1008.2
20260503235538 8 124 0.0 1.6 0.00 0.00 0.00 50 1008.1
20260503235035 8 101 1.6 3.2 0.00 0.00 0.00 49 1008.3
20260503234532 8 61 1.6 3.2 0.00 0.00 0.00 48 1008.2
20260503234031 8 186 0.0 1.6 0.00 0.00 0.00 48 1008.1
20260503233527 9 38 0.0 3.2 0.00 0.00 0.00 49 1008.1
20260503233023 9 148 0.0 4.8 0.00 0.00 0.00 48 1008.1
20260503232520 9 240 0.0 1.6 0.00 0.00 0.00 47 1007.9
20260503232018 9 104 0.0 1.6 0.00 0.00 0.00 47 1007.9
20260503231515 9 227 3.2 4.8 0.00 0.00 0.00 48 1008.2
20260503231012 10 287 0.0 9.7 0.00 0.00 0.00 49 1008.1
20260503230508 10 219 1.6 3.2 0.00 0.00 0.00 48 1008.1
20260503230006 10 269 0.0 4.8 0.00 0.00 0.00 45 1008.1
20260503225503 10 215 3.2 8.0 0.00 0.00 0.00 46 1008.2
20260503224958 10 180 0.0 3.2 0.00 0.00 0.00 49 1008.1
20260503224455 10 34 1.6 4.8 0.00 0.00 0.00 47 1008.2
20260503223953 10 197 0.0 3.2 0.00 0.00 0.00 46 1008.2
20260503223451 10 186 0.0 4.8 0.00 0.00 0.00 45 1008.2
20260503222946 10 209 3.2 3.2 0.00 0.00 0.00 46 1008.2
20260503222444 10 212 3.2 6.4 0.00 0.00 0.00 47 1008.2
20260503221942 10 152 3.2 3.2 0.00 0.00 0.00 46 1008.4
20260503221440 10 275 3.2 6.4 0.00 0.00 0.00 46 1008.2
20260503220937 10 288 0.0 16.1 0.00 0.00 0.00 47 1008.3
20260503220433 10 34 0.0 4.8 0.00 0.00 0.00 46 1008.4
20260503215930 10 21 0.0 11.3 0.00 0.00 0.00 49 1008.2
20260503215427 10 213 4.8 8.0 0.00 0.00 0.00 46 1008.1
20260503214925 10 313 4.8 4.8 0.00 0.00 0.00 46 1008.4
20260503214422 10 100 0.0 4.8 0.00 0.00 0.00 47 1008.3
20260503213920 10 277 1.6 3.2 0.00 0.00 0.00 45 1008.3
20260503213417 10 341 0.0 4.8 0.00 0.00 0.00 46 1008.3
20260503212913 10 211 0.0 4.8 0.00 0.00 0.00 46 1008.4
20260503212411 10 107 0.0 1.6 0.00 0.00 0.00 45 1008.5
20260503211909 10 168 8.0 9.7 0.00 0.00 0.00 46 1008.4
20260503211405 10 300 3.2 4.8 0.00 0.00 0.00 46 1008.7
20260503210901 10 101 0.0 4.8 0.00 0.00 0.00 46 1008.4
20260503210358 10 169 0.0 3.2 0.00 0.00 0.00 46 1008.4
20260503205853 11 16 0.0 4.8 0.00 0.00 0.00 44 1008.5
20260503205350 11 312 3.2 11.3 0.00 0.00 0.00 46 1008.4
20260503204846 10 31 6.4 8.0 0.00 0.00 0.00 46 1008.4
20260503204343 10 202 8.0 8.0 0.00 0.00 0.00 44 1008.3
20260503203841 10 216 3.2 6.4 0.00 0.00 0.00 47 1008.5
20260503203338 10 232 3.2 4.8 0.00 0.00 0.00 47 1008.5
20260503202835 9 227 8.0 8.0 0.00 0.00 0.00 49 1008.7
20260503202333 9 180 3.2 6.4 0.00 0.00 0.00 52 1008.4
20260503201831 9 303 0.0 8.0 0.00 0.00 0.00 50 1008.5
20260503201328 8 143 3.2 6.4 0.00 0.00 0.00 49 1008.6
20260503200825 8 345 4.8 6.4 0.00 0.00 0.00 50 1008.6
20260503200321 8 11 1.6 4.8 0.00 0.00 0.00 51 1008.6
20260503195819 8 308 6.4 9.7 0.00 0.00 0.00 49 1008.7
20260503195315 9 52 1.6 6.4 0.00 0.00 0.00 49 1008.8
20260503194813 10 199 4.8 16.1 0.00 0.00 0.00 50 1008.8
20260503194308 10 278 3.2 11.3 0.00 0.00 0.00 49 1008.9
20260503193804 10 318 0.0 3.2 0.00 0.00 0.00 53 1008.9
20260503193300 10 243 0.0 8.0 0.00 0.00 0.00 46 1008.9
20260503192756 10 237 3.2 12.9 0.00 0.00 0.00 51 1008.9
20260503192252 10 291 3.2 3.2 0.00 0.00 0.00 50 1009.0
20260503191749 9 325 3.2 4.8 0.00 0.00 0.00 50 1009.1
20260503191246 9 219 4.8 19.3 0.00 0.00 0.00 52 1009.1
20260503190742 10 98 3.2 6.4 0.00 0.00 0.00 52 1009.1
20260503190239 10 306 3.2 6.4 0.00 0.00 0.00 51 1009.4
20260503185737 10 341 1.6 11.3 0.00 0.00 0.00 53 1009.3
20260503185232 8 58 1.6 4.8 0.00 0.00 0.00 51 1009.4
20260503184727 8 190 4.8 6.4 0.00 0.00 0.00 52 1009.5
20260503184223 8 100 1.6 4.8 0.00 0.00 0.00 53 1009.4
20260503183720 8 330 8.0 14.5 0.00 0.00 0.00 52 1009.5
20260503183217 9 224 0.0 6.4 0.00 0.00 0.00 49 1009.3
20260503182716 10 121 1.6 6.4 0.00 0.00 0.00 49 1009.6
20260503182214 9 0 1.6 16.1 0.00 0.00 0.00 52 1009.6
20260503181709 8 199 4.8 6.4 0.00 0.00 0.00 50 1009.4
20260503181207 9 8 4.8 8.0 0.00 0.00 0.00 52 1009.5
20260503180703 9 330 11.3 17.7 0.00 0.00 0.00 50 1009.6
20260503180202 8 304 6.4 16.1 0.00 0.00 0.00 52 1009.7
20260503175658 9 304 1.6 9.7 0.00 0.00 0.00 52 1009.6
20260503175156 8 229 0.0 8.0 0.00 0.00 0.00 50 1009.7
20260503174652 8 5 1.6 6.4 0.00 0.00 0.00 51 1009.7
20260503174150 8 0 3.2 9.7 0.00 0.00 0.00 49 1009.6
20260503173644 8 300 3.2 8.0 0.00 0.00 0.00 52 1009.8
20260503173141 8 216 3.2 4.8 0.00 0.00 0.00 55 1009.6
20260503172638 8 173 4.8 12.9 0.00 0.00 0.00 52 1009.7
20260503172130 8 194 3.2 11.3 0.00 0.00 0.00 52 1009.5
20260503171626 8 231 4.8 14.5 0.00 0.00 0.00 52 1009.8
20260503171123 8 11 9.7 11.3 0.00 0.00 0.00 55 1009.7
20260503170620 7 38 3.2 9.7 0.00 0.00 0.00 61 1009.8
20260503170116 7 8 8.0 19.3 0.00 0.00 0.00 61 1009.9
20260503151012 8 32 4.8 6.4 0.00 0.00 0.00 56 1010.6
20260503150508 8 263 3.2 4.8 0.00 0.00 0.00 56 1010.5
20260503131350 7 40 9.7 9.7 0.00 0.00 0.00 67 1011.7
20260503130847 7 4 11.3 16.1 0.00 0.00 0.00 69 1011.6
20260503130345 6 0 4.8 8.0 0.00 0.00 0.00 71 1011.7